Theta_e
332 336 337 339 344 353 357 359 360 363 359 355 352 351 349 351 351 351 355 353 354 353 358 351 353 352 348 351 356 348 350 346 353 349 347 347 351 349 345 348 348 349 349
326 331 334 337 338 342 350 357 359 363 360 358 358 353 351 350 350 350 351 351 352 355 355 356 352 354 349 357 357 358 356 349 350 343 340 330 336 341 340 340 339 341 345
323 327 330 333 338 339 343 347 354 359 360 360 358 357 355 354 350 352 351 354 354 356 357 357 359 365 362 365 363 359 356 347 347 353 340 327 325 332 337 338 338 340 342
322 323 327 330 335 339 342 346 351 355 357 360 360 364 353 349 354 355 354 356 358 359 359 361 360 363 366 366 359 357 356 355 343 344 346 349 342 330 324 335 338 336 336
320 320 322 327 331 335 337 345 349 351 354 357 359 361 356 352 351 361 359 360 361 357 357 358 357 354 358 363 362 361 358 354 353 344 342 348 340 339 331 325 328 331 334
317 320 323 326 327 329 331 339 347 349 352 354 355 355 355 356 356 352 355 357 357 358 351 352 352 356 355 354 357 357 356 356 355 350 348 347 341 337 333 330 329 328 334
316 317 319 320 322 325 327 338 345 345 347 348 349 351 355 356 353 352 356 349 341 343 344 345 345 343 344 345 347 348 348 349 347 347 349 350 347 342 344 337 333 332 333
316 317 318 320 321 323 325 334 341 342 343 344 346 352 351 346 342 345 342 340 337 336 338 338 337 336 335 334 336 333 340 344 340 343 346 347 346 349 348 340 337 331 334
316 317 319 321 322 324 330 336 342 342 341 341 343 342 342 342 339 340 339 335 336 331 333 332 332 332 331 331 333 330 333 336 335 336 340 335 339 342 343 343 341 335 327
319 320 323 325 326 337 339 339 339 334 335 337 337 336 335 334 333 332 329 329 329 327 325 325 325 325 325 325 327 326 328 329 326 325 331 332 328 330 332 336 336 333 326
325 327 329 333 334 334 334 333 333 331 330 330 329 328 326 326 326 325 324 325 324 323 321 320 320 319 320 321 322 322 320 319 322 324 323 324 328 322 323 326 327 330 331
325 326 327 328 328 329 328 327 327 325 323 324 323 322 322 323 322 321 320 320 319 318 316 315 314 313 314 315 315 314 314 314 315 315 315 315 316 323 323 320 324 323 326
324 325 326 325 324 324 322 321 320 320 321 321 320 321 321 320 319 318 318 317 315 314 314 313 313 314 315 315 314 312 311 313 314 315 315 315 316 317 315 318 317 317 319
323 322 321 320 320 319 319 319 318 319 319 318 318 317 317 316 315 314 315 314 314 314 314 314 314 314 314 311 308 307 308 310 311 313 313 312 311 308 308 310 312 313 313
318 319 318 318 318 317 317 316 315 316 317 315 314 312 311 312 312 313 313 314 314 313 313 312 313 313 313 304 304 305 307 308 310 310 308 308 307 306 307 305 306 306 305
317 318 318 317 316 314 315 313 312 312 313 314 311 311 310 310 311 312 312 313 312 312 312 312 311 311 307 299 299 301 305 307 307 307 307 307 306 306 305 305 305 304 303
316 317 317 317 317 316 316 314 313 312 310 309 308 308 309 310 311 312 312 311 311 312 311 311 310 309 305 298 298 300 307 308 308 309 308 307 307 306 304 304 304 303 303
318 317 317 316 316 316 316 315 313 311 309 308 308 309 310 310 311 311 310 310 310 309 309 309 309 308 307 299 298 299 308 308 308 308 308 308 308 309 306 306 305 305 306
317 316 316 314 314 314 315 313 310 309 307 307 308 309 310 310 309 308 308 307 308 308 308 309 309 308 309 300 298 300 305 305 306 308 309 308 308 304 300 303 302 302 304
311 309 308 310 311 311 312 311 309 308 306 308 309 310 310 309 307 308 307 307 308 308 307 308 309 306 308 300 298 300 305 305 305 306 308 305 304 297 296 298 298 297 298
307 308 309 306 308 310 311 308 308 306 307 308 308 309 309 308 307 307 306 307 307 306 306 306 307 309 308 308 297 296 303 301 300 302 306 309 299 297 296 295 297 297 299
306 306 307 307 307 308 309 307 306 307 308 308 308 308 308 306 306 305 306 306 306 304 305 308 308 308 310 302 297 295 294 295 298 300 304 305 297 295 295 298 297 295 296
307 308 305 306 306 306 307 306 306 307 307 308 306 306 307 306 307 306 305 305 304 303 305 305 304 305 307 307 298 295 294 296 299 301 301 297 296 298 302 300 298 300 304
308 308 307 305 304 305 305 306 306 307 306 305 305 306 306 303 306 306 306 304 303 303 303 301 300 302 303 301 298 298 299 299 301 302 307 303 299 298 300 304 303 303 304
306 307 306 304 303 303 304 305 306 306 306 305 306 306 305 304 303 304 305 304 303 299 299 297 295 295 295 295 292 291 295 298 298 300 306 303 300 299 299 299 301 302 305
304 303 303 303 303 303 303 305 305 305 304 305 305 302 303 302 302 303 305 296 295 294 292 291 291 293 292 291 291 291 291 291 292 305 302 300 298 296 296 296 297 300 301
Wind_Speed
15 13 12 12 11 12 11 10 9 9 8 9 9 9 8 8 8 8 5 9 11 10 9 8 9 7 10 9 6 7 9 8 9 6 9 10 8 9 8 7 8 9 10
16 15 13 12 10 9 10 11 10 9 7 6 6 6 7 9 9 10 12 12 13 11 10 9 10 10 11 10 8 8 6 8 8 7 9 9 8 6 4 6 6 8 7
17 16 14 12 11 10 9 9 10 11 11 10 8 5 6 5 6 8 8 10 13 11 11 11 10 7 9 5 7 7 9 9 9 9 7 6 10 5 6 6 3 4 6
16 14 14 14 11 11 9 9 8 9 9 10 9 8 7 8 6 5 3 3 10 9 10 8 8 8 7 6 7 7 10 9 10 5 6 10 11 7 8 5 5 4 6
18 17 15 14 13 11 8 10 8 7 7 9 10 6 10 8 9 2 3 2 4 3 8 7 7 8 7 5 8 8 9 5 7 7 8 7 8 10 8 10 8 5 9
16 15 13 10 9 10 12 9 8 4 6 7 7 8 8 9 1 3 1 2 2 1 6 6 7 6 5 7 8 8 11 9 9 9 10 9 7 9 11 11 12 11 10
17 15 16 14 13 13 8 12 9 6 4 4 6 5 5 4 4 2 2 1 4 5 6 6 7 7 7 9 9 8 6 5 6 10 9 9 11 12 8 10 13 13 11
16 16 16 14 13 12 11 10 9 7 6 4 2 6 7 5 7 9 7 7 5 6 5 7 7 7 7 7 8 8 7 8 7 8 11 8 9 9 9 9 11 11 11
15 15 13 11 8 9 6 10 14 14 11 9 10 11 11 10 9 7 4 5 6 3 7 7 7 8 9 9 10 8 8 7 9 10 10 8 6 4 7 8 8 10 10
10 7 11 10 9 16 15 12 15 13 11 11 11 11 11 11 9 8 8 6 5 6 6 6 6 7 8 9 10 10 10 10 8 10 11 11 10 12 10 7 6 7 8
14 14 14 13 13 12 14 15 13 13 13 13 13 12 11 11 9 8 7 7 7 8 8 8 7 8 8 9 9 10 12 12 11 11 12 13 12 11 11 11 10 8 6
15 14 16 16 16 18 15 13 15 15 13 12 12 12 10 10 9 7 8 8 9 9 10 10 10 10 10 10 10 11 12 13 13 14 14 15 12 13 13 12 13 12 10
20 19 19 19 18 18 17 16 14 14 12 12 11 9 9 8 8 7 7 7 7 6 7 8 8 9 9 8 10 11 12 12 13 13 14 15 15 13 12 12 13 12 11
22 21 20 19 17 17 16 15 14 11 10 10 10 9 7 8 9 8 8 8 7 7 7 7 7 8 9 10 12 13 13 13 13 14 12 12 12 12 13 13 14 14 14
23 20 20 18 18 16 14 14 11 9 6 9 8 8 8 8 10 10 7 7 8 8 8 9 9 8 7 9 12 13 14 13 13 13 13 13 16 20 16 9 11 12 13
21 20 19 18 17 14 14 10 9 7 6 9 9 9 9 9 6 5 6 7 9 10 9 9 9 8 8 10 10 11 12 11 11 11 12 12 14 11 15 10 11 10 13
20 20 19 16 14 14 12 11 8 6 8 7 7 8 8 7 6 6 7 8 8 9 9 9 9 8 7 5 3 7 11 11 11 12 11 11 10 9 11 13 15 16 16
19 18 14 14 11 12 12 8 8 8 8 9 9 8 8 7 7 8 9 8 8 7 7 7 8 7 4 2 5 11 13 12 14 13 13 13 13 10 10 13 15 16 16
17 15 14 14 10 9 8 7 8 8 8 8 7 8 7 7 7 9 8 8 7 7 7 8 9 9 10 7 6 12 12 11 14 14 15 14 15 16 11 10 14 15 15
13 12 12 12 9 7 6 8 8 8 8 8 7 7 7 7 8 9 7 7 7 8 8 8 10 8 9 6 2 9 11 15 13 16 14 15 10 10 10 11 13 15 16
13 10 11 9 9 7 7 9 8 8 7 7 6 6 7 6 6 6 6 6 8 8 9 9 8 7 9 11 13 12 13 12 13 12 13 12 16 21 21 18 12 13 14
13 10 10 10 9 9 8 7 7 6 5 5 6 6 6 5 5 5 6 7 9 8 8 6 8 8 10 9 14 19 16 17 11 12 11 12 19 22 20 16 16 21 19
5 9 10 9 9 9 7 5 6 5 4 6 5 5 4 6 4 4 5 6 8 8 9 9 9 9 9 10 15 16 17 17 12 9 14 20 15 16 12 18 18 18 11
9 7 9 8 7 6 6 6 5 5 5 3 3 4 4 6 5 5 5 5 5 9 9 9 10 9 9 10 12 12 12 13 11 13 9 10 9 9 11 14 13 12 11
7 7 7 6 7 5 5 4 4 3 2 1 3 4 4 5 4 5 3 5 9 6 7 7 7 9 9 11 15 13 10 10 12 12 10 11 12 13 13 13 13 11 10
9 7 5 5 4 4 4 3 4 4 4 3 4 5 4 5 4 4 3 6 5 7 7 3 4 7 5 14 17 16 15 15 15 8 11 11 10 11 12 12 13 11 13
Wind_Direction
172 170 178 169 176 187 185 194 190 192 211 205 203 206 214 211 216 240 218 228 238 227 221 226 243 227 252 239 209 229 234 256 256 255 264 254 247 249 265 289 291 309 303
193 170 178 180 181 179 195 191 195 185 191 218 236 240 207 220 217 224 215 227 228 226 223 220 247 222 231 224 223 234 251 255 259 243 281 276 257 201 265 274 298 283 279
199 173 177 180 180 188 189 204 203 203 202 227 201 210 271 269 222 238 234 224 233 224 227 220 228 269 254 224 226 234 238 244 257 213 233 271 271 281 249 244 266 320 322
208 213 191 177 191 186 182 179 193 202 212 220 243 215 248 243 231 243 11 1 248 210 232 241 234 240 251 267 241 232 248 236 254 255 226 261 288 264 269 237 261 231 233
212 221 224 202 187 184 191 173 181 199 237 201 244 200 242 260 244 55 303 237 258 275 272 264 268 255 256 281 270 265 263 268 273 261 257 218 239 261 262 263 252 229 252
219 215 215 226 223 209 191 155 140 178 198 227 208 251 269 252 300 224 122 232 249 227 32 18 349 341 6 318 317 310 291 285 275 272 271 278 243 247 242 259 270 263 257
221 220 217 219 222 223 206 129 131 149 187 201 217 214 267 298 355 281 213 161 51 31 14 11 28 11 6 356 345 328 326 323 320 310 291 287 276 273 280 266 276 275 257
210 214 217 207 219 210 230 114 115 141 141 95 105 54 62 71 60 39 40 36 59 47 18 28 18 8 9 354 350 323 340 343 328 299 286 293 289 291 290 276 279 277 270
206 199 205 205 212 215 107 93 87 79 75 79 79 79 75 68 73 76 99 80 18 99 43 30 8 357 353 354 350 321 329 337 326 312 301 312 305 317 307 298 292 288 283
193 151 80 75 82 77 84 98 99 105 125 117 107 91 87 82 77 71 66 55 39 36 28 20 8 341 345 344 348 338 333 321 315 310 325 306 308 317 302 297 304 294 282
90 91 95 92 99 109 97 87 96 108 105 95 90 81 76 74 66 59 46 36 23 11 2 351 350 328 335 344 334 322 303 320 309 310 306 313 313 304 308 304 297 280 295
109 121 110 97 99 105 118 120 110 103 93 87 82 83 81 71 61 47 34 19 11 7 351 343 348 342 342 343 328 317 324 318 324 319 315 312 313 316 308 301 299 307 292
125 119 125 126 121 113 107 106 100 91 92 92 84 77 70 70 55 35 19 6 9 352 345 339 337 350 342 345 0 345 329 325 321 318 320 319 317 310 309 308 304 301 301
133 123 121 117 114 109 103 93 81 79 79 89 83 70 57 50 39 18 13 356 5 4 354 357 360 356 346 34 355 344 334 330 327 322 327 320 320 350 330 318 317 307 310
127 123 118 115 113 111 107 101 88 78 86 82 73 49 34 35 32 18 14 9 18 5 356 -0 359 357 4 30 6 350 340 327 330 334 334 318 329 320 307 323 321 321 302
128 126 121 120 116 120 114 116 110 90 45 49 33 35 27 34 18 7 19 15 9 6 359 3 354 354 48 54 16 343 326 331 318 327 323 319 306 318 322 315 313 305 298
128 127 128 126 120 118 113 101 94 80 61 29 33 32 17 26 18 20 18 11 8 4 359 359 359 -0 92 76 3 323 316 330 328 327 324 317 325 312 305 298 285 275 268
123 115 115 113 112 104 92 88 74 51 43 31 29 23 18 24 14 13 16 9 5 354 347 7 356 357 12 108 352 331 343 327 329 324 313 309 305 306 296 299 299 295 290
123 116 109 99 89 85 88 77 58 45 39 35 29 25 18 15 11 10 11 14 350 3 345 0 358 347 335 22 11 335 325 323 323 322 323 317 303 295 279 284 289 289 284
119 123 112 105 91 76 64 61 51 40 34 33 33 23 15 11 14 11 9 6 338 26 349 353 2 348 333 10 295 343 336 329 331 323 315 283 292 336 328 311 294 285 280
125 118 102 93 86 62 52 52 44 39 22 33 31 22 15 1 25 10 10 351 0 3 359 349 327 349 5 359 36 14 348 342 326 318 322 328 349 332 315 303 292 273 278
141 143 110 86 66 47 43 47 44 28 25 27 32 22 16 360 28 23 10 345 17 349 303 341 4 359 359 22 28 6 355 334 330 321 323 326 320 310 305 308 302 292 289
175 111 106 95 73 61 34 49 44 27 10 43 15 10 7 354 12 16 8 14 8 320 358 6 1 353 4 0 12 349 338 330 325 313 311 293 308 324 330 336 323 326 329
135 117 98 84 80 64 53 41 33 30 10 38 1 4 23 336 26 342 28 0 351 5 5 6 347 347 -0 359 350 344 340 342 336 335 322 355 349 329 343 348 348 342 359
115 87 82 81 66 56 49 37 35 52 313 31 359 10 10 19 3 351 339 343 63 30 3 7 340 342 345 348 320 320 328 338 327 321 10 11 4 359 357 352 348 345 350
108 96 92 100 89 74 52 42 35 7 7 299 38 44 13 352 356 326 327 97 84 118 88 39 16 339 328 323 323 329 328 313 323 24 21 9 1 358 355 352 344 346 348